User: anonymous   Login
Location: Newark
(43.4306°N, 0.3089°E)
Time: 03:47:36
(UTC+00:00)
Language:

A-11 Canister half - Orbit

View from above orbital plane
View from above orbital plane
View from above satellite
View from above satellite

Ground track
Ground track

The orbit data is extracted from the following two-line orbital elements,

1    51U 60009C   20220.33042638 -.00000107 +00000-0 -21991-3 0  9991
2    51 047.2107 190.0193 0108786 314.0688 045.1184 12.18276504670295
Epoch (UTC): 07 August 2020 07:55:48
Eccentricity: 0.0108786
inclination: 47.2107°
perigee height: 1513 km
apogee height: 1687 km
right ascension of ascending node: 190.0193°
argument of perigee: 314.0688°
revolutions per day: 12.18276504
mean anomaly at epoch: 45.1184°
orbit number at epoch: 67029

The dashed part of the orbit path shows where the satellite is in the earth's shadow,  

DLR